Location: Anciles
(42.5833°N, 0.5167°E)
Time: 00:17:04
(UTC+00:00)

Meteor 2-9 Rocket - Pass Details

Date: 10 December 2019
Orbit: 791 x 895 km, 81.3° (Epoch: 24 January)

Event Time Altitude Azimuth Distance (km) Brightness Sun altitude
Rises 18:38:17 0° 351° (N) 3,521 7.4 -23.8°
Reaches altitude 10° 18:40:47 10° 353° (N) 2,575 6.7 -24.2°
Maximum altitude 18:46:40 74° 79° (E) 925 4.1 -25.3°
Drops below altitude 10° 18:52:25 10° 165° (SSE) 2,521 6.6 -26.4°
Sets 18:54:50 0° 167° (SSE) 3,442 7.3 -26.8°
